Grub im Wienerwald
Wetterdaten: aktuell Samstag, 17.11.2018 16:24
Datum Zeit Temp. A. Feuchte A. Luftdruck Regen Wind Richtung Richtung Sonnenschein UV Solar Taupunkt Windchill Windben
17.11.2018 16:24 1,8 C 75 % 1032,4 hPa 0,0 l/m 0,2 km/h O 96 0 min 0,0 UV-I 0 W/m -2,1 C 1,8 C 1,6 km/h
17.11.2018 16:21 1,9 C 75 % 1032,4 hPa 0,0 l/m 0,4 km/h O 96 0 min 0,0 UV-I 5 W/m -2,1 C 1,9 C 3,2 km/h
17.11.2018 16:18 1,9 C 75 % 1032,4 hPa 0,0 l/m 0,1 km/h O 96 0 min 0,0 UV-I 5 W/m -2,1 C 1,9 C 1,6 km/h
17.11.2018 16:15 2,1 C 75 % 1032,4 hPa 0,0 l/m 0,6 km/h O 96 0 min 0,0 UV-I 7 W/m -1,9 C 2,1 C 3,2 km/h
17.11.2018 16:12 2,3 C 74 % 1032,3 hPa 0,0 l/m 1,4 km/h O 96 0 min 0,0 UV-I 7 W/m -1,8 C 2,3 C 3,2 km/h
17.11.2018 16:09 2,4 C 73 % 1032,3 hPa 0,0 l/m 0,0 km/h O 96 0 min 0,0 UV-I 9 W/m -1,9 C 2,4 C 0,0 km/h
17.11.2018 16:06 2,6 C 73 % 1032,3 hPa 0,0 l/m 0,6 km/h O 96 0 min 0,0 UV-I 11 W/m -1,7 C 2,6 C 3,2 km/h
17.11.2018 16:03 2,8 C 72 % 1032,3 hPa 0,0 l/m 0,4 km/h O 96 3 min 0,0 UV-I 12 W/m -1,7 C 2,8 C 1,6 km/h
17.11.2018 16:00 3,0 C 72 % 1032,2 hPa 0,0 l/m 0,0 km/h O 96 0 min 0,0 UV-I 14 W/m -1,5 C 3,0 C 0,0 km/h
17.11.2018 15:57 3,2 C 71 % 1032,2 hPa 0,0 l/m 0,0 km/h O 96 0 min 0,0 UV-I 16 W/m -1,5 C 3,2 C 1,6 km/h
17.11.2018 15:54 3,3 C 71 % 1032,2 hPa 0,0 l/m 0,0 km/h O 96 0 min 0,0 UV-I 18 W/m -1,4 C 3,3 C 0,0 km/h
17.11.2018 15:51 3,4 C 71 % 1032,1 hPa 0,0 l/m 0,0 km/h O 96 0 min 0,0 UV-I 18 W/m -1,3 C 3,4 C 1,6 km/h
17.11.2018 15:48 3,5 C 70 % 1032,1 hPa 0,0 l/m 0,0 km/h O 96 0 min 0,0 UV-I 19 W/m -1,4 C 3,5 C 1,6 km/h
17.11.2018 15:45 3,6 C 70 % 1032,1 hPa 0,0 l/m 0,8 km/h O 96 0 min 0,0 UV-I 21 W/m -1,3 C 3,6 C 3,2 km/h
17.11.2018 15:42 3,6 C 70 % 1032,1 hPa 0,0 l/m 0,0 km/h O 96 0 min 0,0 UV-I 23 W/m -1,3 C 3,6 C 0,0 km/h
17.11.2018 15:39 3,6 C 70 % 1032,1 hPa 0,0 l/m 0,1 km/h O 96 0 min 0,0 UV-I 23 W/m -1,3 C 3,6 C 1,6 km/h
17.11.2018 15:36 3,7 C 70 % 1032,2 hPa 0,0 l/m 0,4 km/h O 96 0 min 0,0 UV-I 25 W/m -1,3 C 3,7 C 3,2 km/h
17.11.2018 15:33 3,7 C 70 % 1032,2 hPa 0,0 l/m 0,0 km/h O 96 0 min 0,0 UV-I 26 W/m -1,3 C 3,7 C 1,6 km/h
17.11.2018 15:30 3,7 C 69 % 1032,2 hPa 0,0 l/m 0,2 km/h O 96 0 min 0,0 UV-I 28 W/m -1,4 C 3,7 C 1,6 km/h
17.11.2018 15:27 3,7 C 69 % 1032,3 hPa 0,0 l/m 1,2 km/h O 96 0 min 0,0 UV-I 28 W/m -1,4 C 3,7 C 6,4 km/h
17.11.2018 15:24 3,7 C 70 % 1032,3 hPa 0,0 l/m 0,4 km/h O 96 0 min 0,0 UV-I 30 W/m -1,3 C 3,7 C 3,2 km/h
17.11.2018 15:21 3,7 C 69 % 1032,3 hPa 0,0 l/m 0,2 km/h O 96 0 min 0,0 UV-I 30 W/m -1,4 C 3,7 C 1,6 km/h
17.11.2018 15:18 3,8 C 69 % 1032,3 hPa 0,0 l/m 1,0 km/h O 96 0 min 0,0 UV-I 32 W/m -1,4 C 3,8 C 3,2 km/h
17.11.2018 15:15 3,8 C 69 % 1032,2 hPa 0,0 l/m 1,3 km/h O 96 0 min 0,0 UV-I 33 W/m -1,4 C 3,8 C 6,4 km/h
17.11.2018 15:12 3,8 C 70 % 1032,3 hPa 0,0 l/m 3,6 km/h O 96 0 min 0,0 UV-I 33 W/m -1,2 C 3,8 C 8,0 km/h
17.11.2018 15:09 3,8 C 69 % 1032,3 hPa 0,0 l/m 3,8 km/h O-SO 103 0 min 0,0 UV-I 35 W/m -1,4 C 3,8 C 12,9 km/h
17.11.2018 15:06 3,8 C 69 % 1032,3 hPa 0,0 l/m 2,0 km/h O 96 0 min 0,0 UV-I 35 W/m -1,4 C 3,8 C 8,0 km/h
17.11.2018 15:03 3,9 C 70 % 1032,2 hPa 0,0 l/m 0,7 km/h O 95 0 min 0,0 UV-I 35 W/m -1,1 C 3,9 C 6,4 km/h
17.11.2018 15:00 3,9 C 69 % 1032,2 hPa 0,0 l/m 2,5 km/h O 95 0 min 0,0 UV-I 37 W/m -1,3 C 3,9 C 8,0 km/h
17.11.2018 14:57 3,9 C 69 % 1032,2 hPa 0,0 l/m 0,8 km/h O 95 0 min 0,0 UV-I 37 W/m -1,3 C 3,9 C 6,4 km/h
17.11.2018 14:54 3,9 C 69 % 1032,2 hPa 0,0 l/m 7,1 km/h O 95 0 min 0,0 UV-I 39 W/m -1,3 C 3,3 C 12,9 km/h
17.11.2018 14:51 3,9 C 69 % 1032,2 hPa 0,0 l/m 3,9 km/h O-NO 69 0 min 0,0 UV-I 40 W/m -1,3 C 3,9 C 9,7 km/h
17.11.2018 14:48 4,0 C 69 % 1032,2 hPa 0,0 l/m 1,6 km/h SO 144 0 min 0,0 UV-I 42 W/m -1,2 C 4,0 C 6,4 km/h
17.11.2018 14:45 4,1 C 69 % 1032,1 hPa 0,0 l/m 1,9 km/h SO 144 0 min 0,0 UV-I 42 W/m -1,1 C 4,1 C 6,4 km/h
17.11.2018 14:42 4,1 C 69 % 1032,2 hPa 0,0 l/m 0,1 km/h SO 146 0 min 0,0 UV-I 42 W/m -1,1 C 4,1 C 1,6 km/h
17.11.2018 14:39 4,1 C 69 % 1032,3 hPa 0,0 l/m 2,8 km/h SO 146 0 min 0,0 UV-I 63 W/m -1,1 C 4,1 C 8,0 km/h
17.11.2018 14:36 4,1 C 69 % 1032,3 hPa 0,0 l/m 2,9 km/h SO 146 0 min 0,0 UV-I 47 W/m -1,1 C 4,1 C 8,0 km/h
17.11.2018 14:33 4,1 C 69 % 1032,3 hPa 0,0 l/m 5,3 km/h SO 145 0 min 0,0 UV-I 47 W/m -1,1 C 4,1 C 11,3 km/h
17.11.2018 14:30 4,2 C 69 % 1032,3 hPa 0,0 l/m 4,3 km/h O-SO 109 0 min 0,0 UV-I 47 W/m -1,0 C 4,2 C 11,3 km/h
17.11.2018 14:27 4,2 C 69 % 1032,3 hPa 0,0 l/m 4,1 km/h O-SO 105 0 min 0,0 UV-I 54 W/m -1,0 C 4,2 C 11,3 km/h
17.11.2018 14:24 4,2 C 69 % 1032,3 hPa 0,0 l/m 4,1 km/h SO 128 0 min 0,0 UV-I 46 W/m -1,0 C 4,2 C 12,9 km/h
17.11.2018 14:21 4,3 C 70 % 1032,3 hPa 0,0 l/m 3,2 km/h S 183 0 min 0,0 UV-I 46 W/m -0,7 C 4,3 C 8,0 km/h
17.11.2018 14:18 4,3 C 70 % 1032,3 hPa 0,0 l/m 3,9 km/h S 183 0 min 0,0 UV-I 47 W/m -0,7 C 4,3 C 11,3 km/h
17.11.2018 14:15 4,3 C 70 % 1032,3 hPa 0,0 l/m 5,6 km/h S 175 0 min 0,0 UV-I 47 W/m -0,7 C 4,3 C 11,3 km/h
17.11.2018 14:12 4,3 C 70 % 1032,2 hPa 0,0 l/m 5,2 km/h SO 146 0 min 0,0 UV-I 47 W/m -0,7 C 4,3 C 9,7 km/h
17.11.2018 14:09 4,3 C 69 % 1032,2 hPa 0,0 l/m 6,6 km/h S-SO 147 0 min 0,0 UV-I 46 W/m -0,9 C 4,1 C 14,5 km/h
17.11.2018 14:06 4,2 C 69 % 1032,2 hPa 0,0 l/m 5,2 km/h S-SO 163 0 min 0,7 UV-I 139 W/m -1,0 C 4,2 C 9,7 km/h
17.11.2018 14:03 4,3 C 69 % 1032,3 hPa 0,0 l/m 7,0 km/h S-SO 167 0 min 0,0 UV-I 65 W/m -0,9 C 3,8 C 11,3 km/h
17.11.2018 14:00 4,3 C 69 % 1032,3 hPa 0,0 l/m 8,0 km/h S 173 0 min 0,0 UV-I 47 W/m -0,9 C 2,9 C 16,1 km/h
17.11.2018 13:57 4,4 C 69 % 1032,3 hPa 0,0 l/m 6,5 km/h SO 140 0 min 0,7 UV-I 58 W/m -0,8 C 4,3 C 11,3 km/h
17.11.2018 13:54 4,4 C 68 % 1032,3 hPa 0,0 l/m 4,3 km/h SO 139 0 min 0,7 UV-I 113 W/m -1,0 C 4,4 C 12,9 km/h
17.11.2018 13:51 4,4 C 68 % 1032,3 hPa 0,0 l/m 6,0 km/h S-SO 153 0 min 0,0 UV-I 53 W/m -1,0 C 4,4 C 9,7 km/h
17.11.2018 13:48 4,5 C 68 % 1032,3 hPa 0,0 l/m 8,4 km/h SO 143 0 min 0,0 UV-I 49 W/m -0,9 C 2,7 C 16,1 km/h
17.11.2018 13:45 4,6 C 67 % 1032,2 hPa 0,0 l/m 6,4 km/h S 186 0 min 0,8 UV-I 70 W/m -1,0 C 4,6 C 14,5 km/h
17.11.2018 13:42 4,6 C 67 % 1032,4 hPa 0,0 l/m 6,4 km/h S-SW 206 3 min 0,8 UV-I 221 W/m -1,0 C 4,6 C 14,5 km/h
17.11.2018 13:39 4,6 C 67 % 1032,5 hPa 0,0 l/m 8,2 km/h O-SO 109 3 min 0,9 UV-I 269 W/m -1,0 C 3,0 C 14,5 km/h
17.11.2018 13:36 4,7 C 67 % 1032,4 hPa 0,0 l/m 8,0 km/h S-SO 150 3 min 0,9 UV-I 276 W/m -0,9 C 3,3 C 12,9 km/h
17.11.2018 13:33 4,7 C 67 % 1032,4 hPa 0,0 l/m 6,9 km/h S-SO 149 3 min 0,9 UV-I 288 W/m -0,9 C 4,3 C 14,5 km/h
17.11.2018 13:30 4,7 C 67 % 1032,4 hPa 0,0 l/m 8,3 km/h S-SO 168 3 min 0,9 UV-I 290 W/m -0,9 C 3,0 C 14,5 km/h
17.11.2018 13:27 4,7 C 67 % 1032,3 hPa 0,0 l/m 7,6 km/h S-SO 165 3 min 0,9 UV-I 294 W/m -0,9 C 3,6 C 14,5 km/h
17.11.2018 13:24 4,7 C 67 % 1032,3 hPa 0,0 l/m 5,2 km/h SO 128 3 min 1,0 UV-I 318 W/m -0,9 C 4,7 C 12,9 km/h
17.11.2018 13:21 4,7 C 67 % 1032,4 hPa 0,0 l/m 8,1 km/h S-SO 157 3 min 1,0 UV-I 302 W/m -0,9 C 3,2 C 12,9 km/h
17.11.2018 13:18 4,6 C 66 % 1032,2 hPa 0,0 l/m 1,8 km/h O-SO 121 3 min 1,0 UV-I 218 W/m -1,2 C 4,6 C 6,4 km/h
17.11.2018 13:15 4,6 C 67 % 1032,3 hPa 0,0 l/m 5,4 km/h O-SO 121 3 min 1,0 UV-I 309 W/m -1,0 C 4,6 C 11,3 km/h
17.11.2018 13:12 4,6 C 68 % 1032,2 hPa 0,0 l/m 6,4 km/h S-SO 147 3 min 1,0 UV-I 315 W/m -0,8 C 4,6 C 14,5 km/h
17.11.2018 13:09 4,6 C 67 % 1032,2 hPa 0,0 l/m 7,2 km/h S 186 3 min 1,0 UV-I 318 W/m -1,0 C 3,9 C 16,1 km/h
17.11.2018 13:06 4,5 C 69 % 1032,3 hPa 0,0 l/m 6,0 km/h SO 127 3 min 1,1 UV-I 323 W/m -0,7 C 4,5 C 16,1 km/h
17.11.2018 13:03 4,4 C 69 % 1032,2 hPa 0,0 l/m 8,8 km/h SO 136 3 min 1,1 UV-I 322 W/m -0,8 C 2,3 C 17,7 km/h
17.11.2018 13:00 4,4 C 70 % 1032,2 hPa 0,0 l/m 8,2 km/h S 183 3 min 1,1 UV-I 325 W/m -0,6 C 2,8 C 17,7 km/h
17.11.2018 12:57 4,3 C 70 % 1032,2 hPa 0,0 l/m 8,0 km/h S 170 3 min 1,1 UV-I 320 W/m -0,7 C 2,9 C 14,5 km/h
17.11.2018 12:54 4,2 C 72 % 1032,3 hPa 0,0 l/m 6,3 km/h S 184 3 min 1,1 UV-I 327 W/m -0,4 C 4,2 C 12,9 km/h
17.11.2018 12:51 4,2 C 72 % 1032,3 hPa 0,0 l/m 10,2 km/h S 173 3 min 1,1 UV-I 330 W/m -0,4 C 1,0 C 17,7 km/h
17.11.2018 12:48 4,1 C 72 % 1032,3 hPa 0,0 l/m 4,7 km/h S-SO 148 3 min 1,1 UV-I 332 W/m -0,5 C 4,1 C 11,3 km/h
17.11.2018 12:45 4,1 C 73 % 1032,3 hPa 0,0 l/m 2,9 km/h SO 146 3 min 1,1 UV-I 334 W/m -0,3 C 4,1 C 8,0 km/h
17.11.2018 12:42 4,0 C 74 % 1032,4 hPa 0,0 l/m 5,1 km/h SO 146 3 min 1,2 UV-I 336 W/m -0,2 C 4,0 C 12,9 km/h
17.11.2018 12:39 3,9 C 74 % 1032,3 hPa 0,0 l/m 7,4 km/h S-SO 154 3 min 1,2 UV-I 339 W/m -0,3 C 3,0 C 12,9 km/h
17.11.2018 12:36 3,9 C 74 % 1032,3 hPa 0,0 l/m 3,7 km/h S-SO 159 3 min 1,2 UV-I 334 W/m -0,3 C 3,9 C 9,7 km/h
17.11.2018 12:33 3,8 C 75 % 1032,4 hPa 0,0 l/m 1,9 km/h S-SO 159 3 min 1,2 UV-I 334 W/m -0,2 C 3,8 C 8,0 km/h
17.11.2018 12:30 3,8 C 76 % 1032,4 hPa 0,0 l/m 2,9 km/h S-SO 161 3 min 1,2 UV-I 325 W/m -0,0 C 3,8 C 12,9 km/h
17.11.2018 12:27 3,7 C 77 % 1032,5 hPa 0,0 l/m 3,4 km/h S-SO 165 3 min 1,2 UV-I 339 W/m 0,1 C 3,7 C 8,0 km/h
17.11.2018 12:24 3,7 C 78 % 1032,5 hPa 0,0 l/m 0,6 km/h S-SO 167 3 min 1,2 UV-I 339 W/m 0,2 C 3,7 C 3,2 km/h
17.11.2018 12:21 3,5 C 80 % 1032,5 hPa 0,0 l/m 1,9 km/h S-SO 167 3 min 1,2 UV-I 338 W/m 0,4 C 3,5 C 6,4 km/h
17.11.2018 12:18 3,4 C 82 % 1032,5 hPa 0,0 l/m 5,1 km/h S-SO 167 3 min 1,2 UV-I 350 W/m 0,6 C 3,4 C 9,7 km/h
17.11.2018 12:15 3,2 C 85 % 1032,5 hPa 0,0 l/m 5,2 km/h S-SO 167 3 min 1,2 UV-I 352 W/m 0,9 C 3,2 C 11,3 km/h
17.11.2018 12:12 3,1 C 87 % 1032,5 hPa 0,0 l/m 8,0 km/h S 188 3 min 1,2 UV-I 355 W/m 1,2 C 1,6 C 19,3 km/h
17.11.2018 12:09 2,8 C 89 % 1032,5 hPa 0,0 l/m 5,3 km/h S-SO 150 3 min 1,2 UV-I 359 W/m 1,2 C 2,8 C 11,3 km/h
17.11.2018 12:06 2,7 C 91 % 1032,6 hPa 0,0 l/m 3,2 km/h SO 136 3 min 1,2 UV-I 357 W/m 1,4 C 2,7 C 9,7 km/h
17.11.2018 12:03 2,5 C 93 % 1032,6 hPa 0,0 l/m 1,0 km/h SO 125 3 min 1,2 UV-I 353 W/m 1,5 C 2,5 C 6,4 km/h
17.11.2018 12:00 2,4 C 94 % 1032,6 hPa 0,0 l/m 1,0 km/h SO 125 3 min 1,2 UV-I 350 W/m 1,5 C 2,4 C 6,4 km/h
17.11.2018 11:57 2,2 C 95 % 1032,7 hPa 0,0 l/m 3,0 km/h SO 125 3 min 1,2 UV-I 355 W/m 1,5 C 2,2 C 9,7 km/h
17.11.2018 11:54 2,1 C 95 % 1032,6 hPa 0,0 l/m 4,3 km/h SO 125 3 min 1,2 UV-I 346 W/m 1,4 C 2,1 C 9,7 km/h
_ Min-Zeit 06:18 13:18 14:45 - 17:00 - - - - - 06:18 06:18 17:00
Minimum _ -6,3 C 66 % 1032,1 hPa - 0,0 km/h - - - - - -7,2 C -6,3 C 0,0 km/h
_ Max-Zeit 13:21 10:45 08:33 10:39 12:51 - - 08:57 10:51 12:09 12:00 13:24 12:12
Maximum _ 4,7 C 98 % 1033,9 hPa 0,2 l/m 10,2 km/h
S
- - 3 min 1,2 UV-I 359 W/m 1,5 C 4,7 C 19,3 km/h
S-SW
Durchschnitt _ -1,4 C 88 % 1032,9 hPa #0,2 l/m 0,9 km/h O-SO - #4:51 h 1,0 UV-I 173 W/m -3,2 C -1,5 C 2,2 km/h
Schulla EDV